Track YAOGAN-30 D now! 10-day predictions YAOGAN-30 D is classified as:
1 43028U 17075A 23265.72793827 .00003882 00000-0 36957-3 0 9994 2 43028 34.9941 193.3608 0003341 252.0480 107.9861 14.92923340317607